Regional Weather Roundup
Issued by NWS

Home | Current Version | Previous Version | Graphics & Text | Print | Product List | Glossary On
Versions: 1 2 3 4 5 6 7 8 9 10 11 12 13 14 15 16 17 18 19 20 21 22 23 24 25 26 27 28 29 30 31 32 33 34 35 36 37 38 39 40 41 42 43 44 45 46 47 48 49 50
000
ASUS43 KOAX 051410
RWRNE

WEATHER ROUNDUP FOR NEBRASKA
NATIONAL WEATHER SERVICE OMAHA NE
900 AM CDT TUE MAY 05 2015

NOTES: SATELLITE DATA IS BEING USED TO AUGMENT CLOUD COVER ABOVE
       12000 FEET.
       "FAIR" INDICATES FEW OR NO CLOUDS BELOW 12,000 FEET WITH NO
       SIGNIFICANT WEATHER AND/OR OBSTRUCTIONS TO VISIBILITY.

  * THESE STATIONS DO NOT REPORT WEATHER SUCH AS RAIN...SNOW OR FOG.

NEZ001>004-019>022-054>056-051500-
NEBRASKA PANHANDLE

CITY           SKY/WX    TMP DP  RH WIND       PRES   REMARKS
SCOTTSBLUFF    CLOUDY    49  46  90 S12G23    30.01S FOG
ALLIANCE       CLOUDY    49  46  90 S9        30.02R
CHADRON        CLOUDY    51  45  79 E8        30.00S
KIMBALL        FOG       45  45  99 SE8       30.00F VSB 1/4
SIDNEY         CLOUDY    47  45  93 SE5       30.02F
$$

NEZ057>060-069>072-079>082-051500-
SOUTHWEST NEBRASKA

CITY           SKY/WX    TMP DP  RH WIND       PRES   REMARKS
NORTH PLATTE   CLOUDY    52  52 100 E7        30.04S FOG
IMPERIAL       CLOUDY    51  50  96 NE8       30.01F FOG
LEXINGTON      FOG       56  56  97 E7        30.04F VSB 1/4
MCCOOK         CLOUDY    56  55  97 NE10      30.00F FOG
OGALLALA       CLOUDY    50  50  99 E3        30.02F FOG
$$

NEZ005>010-023>029-035>040-094-051500-
NORTH CENTRAL NEBRASKA

CITY           SKY/WX    TMP DP  RH WIND       PRES   REMARKS
VALENTINE      CLOUDY    53  48  83 E7        30.05S
AINSWORTH      CLOUDY    53  53  98 E9        30.05S FOG
BROKEN BOW     FOG       55  54  96 SE10      30.05R VSB 1/2
O`NEILL        CLOUDY    54  53  96 E8        30.07S FOG
ORD            LGT RAIN  55  54  96 SE8       30.06R VSB 1
THEDFORD       CLOUDY    54  53  96 E8        30.04F FOG
$$

NEZ041-046>049-061>064-073>077-083>087-051500-
SOUTH CENTRAL NEBRASKA

CITY           SKY/WX    TMP DP  RH WIND       PRES   REMARKS
GRAND ISLAND   FOG       58  57  97 E6        30.07S VSB 1
AURORA         CLOUDY    59  59 100 E7        30.06S FOG
HASTINGS       CLOUDY    61  59  93 NE5       30.05S FOG
HEBRON         PTSUNNY   65  58  79 SE8       30.05S
HOLDREGE       CLOUDY    58  57  97 CALM      30.04S FOG
KEARNEY *      CLOUDY    57  55  94 E5        30.05S
YORK           FOG       59  59 100 E10       30.07S VSB 1/2
$$

NEZ011>018-030>034-042>045-051500-
NORTHEAST NEBRASKA

CITY           SKY/WX    TMP DP  RH WIND       PRES   REMARKS
NORFOLK        FOG       55  55 100 E9        30.08R VSB 1/4
ALBION         FOG       55  54  94 SE9       30.08S VSB 1/2
BLAIR          CLOUDY    60  59  95 SE8       30.08S FOG
COLUMBUS *     CLOUDY    57  54  88 E7        30.09S VSB 1
FREMONT        CLOUDY    62  60  94 SE8       30.08S FOG
TEKAMAH        CLOUDY    60  58  92 S5        30.08R FOG
WAYNE          CLOUDY    55  53  95 E9        30.09S FOG
$$

NEZ050>053-065>068-078-088>093-051500-
SOUTHEAST NEBRASKA

CITY           SKY/WX    TMP DP  RH WIND       PRES   REMARKS
LINCOLN        CLOUDY    62  59  90 SE6       30.08S
OMAHA EPPLEY   CLOUDY    63  60  90 S9        30.09R
BEATRICE       PTSUNNY   65  59  81 SE8       30.07R
FALLS CITY     CLOUDY    62  59  90 SE8       30.09R
NEBRASKA CITY  CLOUDY    61  61  99 E5        30.10R
PLATTSMOUTH    PTSUNNY   63  59  86 SE5       30.10R
$$

NEZ044-045-051>053-067-051500-
OMAHA AREA

CITY           SKY/WX    TMP DP  RH WIND       PRES   REMARKS
OMAHA EPPLEY   CLOUDY    63  60  90 S9        30.09R
BLAIR          CLOUDY    60  59  95 SE8       30.08S FOG
FREMONT        CLOUDY    62  60  94 SE8       30.08S FOG
MILLARD        CLOUDY    64  60  89 SE6       30.08F
OFFUTT AFB     CLOUDY    65  61  85 SE8       30.08S
PLATTSMOUTH    PTSUNNY   63  59  86 SE5       30.10R
$$


USA.gov is the U.S. government's official web portal to all federal, state and local government web resources and services.